RH
54 54 53 52 52 51 50 49 48 48 47 46 46 46 46 45 44 44 43 42 42 41 41 40 40 39 38 38 38 38 38 38 38 39 38 38 37 35 33 30 28 27 26 24 22 19 17 15 13 13 12 11 11 11 11 11 11 11 11 10 10 9 9
52 52 52 52 52 52 51 51 50 49 48 48 49 48 49 48 48 48 46 46 45 44 44 44 43 43 42 42 42 41 40 39 38 36 34 31 28 25 23 20 18 17 16 16 16 15 14 13 13 14 13 13 13 13 14 14 14 14 13 11 10 10 10
52 52 52 52 52 51 51 51 50 50 50 50 51 52 52 52 51 51 50 48 47 45 44 43 41 39 38 36 35 33 31 29 27 25 24 22 20 18 17 16 16 16 16 18 19 19 18 17 17 17 16 15 15 16 16 16 16 15 14 13 12 11 11
49 49 48 47 47 46 46 46 45 44 44 45 46 46 46 46 44 43 42 40 38 36 34 33 31 30 28 27 27 26 24 23 23 22 22 21 20 20 20 20 20 20 20 22 22 22 20 19 19 19 18 18 17 18 18 17 17 16 15 14 12 11 10
44 44 44 44 44 44 43 43 43 42 42 42 43 45 45 44 42 40 39 37 35 34 32 31 30 29 28 27 27 27 25 24 24 24 25 26 26 26 26 25 24 23 22 22 22 22 20 19 19 20 20 20 19 19 18 17 16 14 12 11 10 9 8
50 50 51 50 50 50 49 49 50 50 50 52 53 54 53 52 50 48 46 44 42 40 38 37 36 34 32 31 30 30 29 28 29 30 31 31 31 30 28 27 25 24 23 22 22 22 21 21 21 21 21 20 18 16 15 14 13 12 10 9 8 8 7
61 61 61 61 61 61 62 62 63 63 65 66 66 65 64 63 62 59 56 53 50 47 45 42 41 39 37 36 35 34 33 33 33 34 34 33 31 30 28 26 25 24 23 23 23 22 22 21 20 19 18 17 15 13 12 11 11 11 11 10 9 9 8
69 71 72 74 74 74 75 75 74 74 74 74 72 72 71 70 69 65 61 58 54 50 47 45 43 41 39 38 36 35 35 36 36 36 36 34 31 29 27 26 25 25 24 24 23 21 20 19 17 16 15 13 12 11 11 11 11 11 11 11 10 10 8
75 77 78 78 78 77 77 75 72 71 71 72 73 72 72 71 67 63 59 55 51 48 46 44 43 41 40 38 38 38 38 39 38 38 36 34 31 29 28 27 25 25 23 22 21 19 17 16 15 13 13 12 11 11 11 11 11 11 11 10 10 9 8
74 75 75 75 74 72 70 69 68 69 69 70 70 69 68 66 63 59 57 54 53 51 49 48 46 45 43 41 40 40 40 39 37 35 33 32 30 28 27 25 24 22 21 19 18 17 15 14 13 12 12 11 11 12 11 11 11 10 10 9 9 9 8
72 72 72 72 71 69 69 68 67 67 66 65 64 64 65 66 65 63 61 59 58 56 53 51 48 46 43 40 39 37 36 34 32 30 30 28 27 25 23 22 21 20 19 17 16 15 13 13 13 12 12 11 11 11 11 10 10 9 9 9 9 9 8
72 72 71 71 71 70 70 69 66 66 66 66 66 67 70 72 71 68 64 61 58 54 51 49 45 42 39 36 35 33 31 30 29 28 28 26 24 22 19 19 18 17 17 16 15 15 14 13 13 13 12 11 11 11 10 10 10 9 9 9 9 9 9
75 76 75 75 75 75 74 73 71 72 72 72 71 71 70 69 66 62 59 56 53 50 47 45 41 39 37 34 33 31 29 29 29 28 26 24 22 20 18 17 16 16 16 15 15 15 14 13 12 12 12 11 10 10 10 11 11 11 11 11 11 10 9
83 82 81 80 80 81 80 78 77 76 74 71 68 65 62 60 57 56 55 53 51 49 46 43 40 37 37 35 32 30 29 29 28 27 25 23 21 19 18 17 17 16 16 15 14 14 13 13 12 12 12 11 11 11 11 12 12 12 11 11 10 9 8
90 87 85 84 85 85 83 79 74 71 67 63 60 58 56 56 56 56 56 55 51 48 45 42 39 37 36 34 32 30 29 28 27 26 25 23 21 19 18 17 16 16 14 14 13 13 13 13 12 12 11 11 11 11 11 11 11 11 11 11 11 10 9
92 90 88 87 86 84 80 74 67 63 61 58 57 56 56 58 59 58 58 55 51 48 44 40 37 34 33 33 32 31 30 28 28 27 25 23 21 19 17 16 15 15 14 14 13 13 13 13 12 12 11 11 11 12 12 13 12 12 12 12 11 11 10
93 91 89 86 82 78 74 69 63 59 58 57 57 58 59 61 62 61 59 55 50 46 41 36 32 31 32 34 34 33 30 29 27 25 22 20 19 17 16 15 15 15 14 15 15 14 14 14 13 13 13 13 13 13 13 13 13 12 11 10 10 10 11
94 91 86 81 77 74 71 67 61 58 58 58 59 60 63 64 64 62 58 52 46 41 35 32 31 32 34 36 34 31 28 26 23 21 19 19 18 17 16 16 16 16 16 17 17 17 16 16 15 15 15 14 14 13 13 13 12 12 11 11 10 10 11
92 87 82 78 75 72 69 65 61 60 60 61 61 64 67 67 66 62 54 47 42 38 34 32 32 33 34 33 30 27 24 22 20 19 19 18 18 18 18 17 18 18 19 20 20 19 19 18 18 17 17 16 15 15 15 14 14 13 12 12 12 11 11
87 84 81 77 74 72 69 66 65 64 63 63 66 69 70 69 65 56 48 43 40 38 36 34 34 33 31 29 26 23 21 19 19 19 19 19 19 19 19 20 20 21 23 24 24 23 23 22 21 20 20 19 19 18 18 18 16 15 13 13 13 12 12
84 84 82 79 76 74 70 68 68 67 65 67 71 73 73 70 61 50 44 43 42 39 37 35 33 30 27 25 23 21 20 19 19 19 20 20 20 20 21 23 25 27 28 28 28 27 26 25 26 25 24 24 22 21 21 20 18 15 14 14 14 13 12
86 87 86 83 79 74 71 69 67 67 68 71 74 76 75 68 56 46 43 44 43 39 35 33 30 27 25 24 23 21 21 20 20 21 21 22 22 23 24 27 30 32 33 33 32 32 31 30 30 29 28 26 24 23 22 20 19 16 15 15 14 13 12
89 88 87 84 79 75 72 69 67 69 73 75 78 82 76 62 50 45 44 42 40 36 32 30 28 26 25 24 23 22 22 22 22 23 23 23 24 26 29 32 34 36 37 37 37 36 34 32 31 30 29 27 26 24 23 22 20 18 16 16 15 14 12
89 87 85 83 80 76 73 70 71 73 75 79 84 82 68 52 46 45 41 37 35 32 30 28 27 26 26 25 25 24 24 24 24 25 25 26 29 32 36 38 39 39 39 39 38 37 35 33 31 31 30 30 29 27 26 24 22 19 17 17 17 16 13
89 87 86 83 81 78 75 73 75 77 78 83 84 72 54 45 44 42 36 32 30 29 29 28 27 27 27 27 26 26 26 26 26 27 29 31 34 39 41 42 42 42 40 39 38 37 35 34 33 34 34 34 33 30 27 25 22 20 19 18 18 17 15
90 88 85 81 80 79 78 78 80 82 85 85 75 56 44 43 43 38 33 30 29 29 29 28 28 29 29 29 29 29 29 29 29 30 33 36 40 44 46 46 45 44 41 40 39 38 38 38 39 40 40 39 36 31 27 25 23 21 20 20 19 17 16
89 86 81 80 80 80 81 84 88 90 90 82 62 46 41 42 40 35 33 31 30 31 30 30 30 31 32 32 33 33 32 33 34 35 38 41 45 48 48 47 46 44 42 43 43 43 44 45 46 46 44 41 36 32 28 25 23 22 21 20 19 18 16
88 84 82 82 82 81 85 92 96 96 90 74 52 41 41 40 36 34 33 32 32 32 31 31 32 33 34 36 37 37 36 37 39 41 45 49 51 51 48 46 44 44 45 47 49 51 51 51 50 48 45 41 37 33 29 26 24 22 21 20 18 18 17
90 87 83 81 81 85 92 100 103 97 83 62 45 38 39 38 35 35 34 33 33 32 32 32 33 34 36 38 39 40 40 41 45 49 53 55 53 49 45 43 43 45 48 51 53 56 56 54 51 48 44 40 37 34 30 27 24 22 22 20 19 18 17
91 85 80 80 85 91 97 101 102 93 73 52 40 36 37 36 35 36 35 34 33 33 33 33 34 35 38 40 42 43 44 46 50 54 55 54 50 46 45 45 45 47 51 55 57 58 57 53 49 46 42 39 36 34 30 27 24 23 22 21 20 19 19
86 81 79 83 91 96 96 96 92 80 61 45 37 35 35 35 36 37 36 34 34 34 34 34 36 38 39 42 45 46 47 50 53 54 54 52 49 48 48 49 50 51 55 59 60 59 56 52 47 43 40 37 35 33 30 27 25 24 24 22 21 20 20
81 80 83 86 89 91 91 88 79 65 50 39 35 34 35 35 36 37 37 35 35 35 35 36 40 42 42 44 46 46 48 51 53 54 54 55 55 55 54 53 55 57 59 61 61 58 55 50 44 41 38 35 34 32 29 28 27 26 25 24 22 22 22
81 81 82 82 80 78 78 74 66 54 42 35 33 35 36 37 36 36 36 36 37 37 38 40 44 46 46 47 48 48 50 54 55 56 59 61 64 66 63 59 59 61 62 62 61 58 53 47 42 39 36 34 33 31 29 28 28 28 28 26 24 23 23
76 74 75 73 66 61 60 59 54 46 37 33 33 36 37 38 37 36 36 37 38 39 42 45 47 49 49 49 51 53 55 58 59 61 64 68 72 75 73 68 64 64 63 62 61 56 50 44 41 38 36 34 33 31 29 29 30 30 30 28 26 24 23
68 62 59 55 50 48 49 50 46 40 34 33 35 37 38 38 38 37 37 38 39 42 46 49 51 51 52 53 56 58 60 62 65 67 71 77 81 82 79 74 70 67 65 63 59 53 47 43 42 39 36 34 32 31 31 32 33 33 32 30 27 25 23
68 55 45 39 37 39 42 43 41 37 33 34 37 40 39 39 38 38 39 40 41 44 49 53 55 56 57 59 61 63 65 69 74 78 82 86 88 86 82 78 73 69 65 60 55 50 47 45 43 40 37 35 34 33 34 34 35 36 34 30 27 25 23
Wind_Speed
116 117 118 119 119 120 121 122 124 125 126 127 128 129 130 132 132 133 134 135 135 135 136 137 137 137 137 137 138 138 138 139 139 139 140 140 140 140 140 140 138 137 136 137 137 137 138 138 138 137 137 135 134 132 132 131 131 131 131 131 131 132 132
116 117 117 118 119 120 121 122 123 124 125 126 127 128 130 131 132 133 134 134 134 135 135 136 136 136 136 136 137 137 137 137 137 137 137 137 137 137 136 136 134 132 131 129 130 130 131 131 130 130 129 127 125 124 125 125 125 126 127 127 127 128 128
115 115 116 117 118 118 119 120 121 122 123 124 125 126 128 129 130 131 132 132 133 133 133 133 134 133 133 133 133 133 133 132 132 132 132 132 131 131 130 129 128 126 124 122 122 123 124 125 125 124 123 122 121 120 121 122 122 123 124 125 125 125 125
111 112 112 113 113 114 114 115 115 116 116 117 118 119 121 122 123 124 125 126 126 126 126 126 127 126 126 126 126 126 126 125 125 125 125 125 125 124 124 123 123 121 119 118 118 119 120 120 120 120 120 119 118 118 119 119 120 121 122 122 122 122 122
105 105 105 105 105 105 105 106 106 106 107 107 108 110 111 113 114 115 116 117 117 118 118 118 119 119 119 119 119 119 120 120 119 119 119 119 119 119 119 119 119 118 117 116 115 116 117 117 117 117 117 116 115 115 116 117 118 118 119 119 119 119 118
96 95 96 96 96 96 97 97 98 98 98 99 100 101 103 104 106 107 108 110 110 111 112 112 113 114 114 114 114 115 115 115 115 115 115 116 116 116 116 116 116 116 115 115 114 114 114 114 114 114 115 115 114 113 114 114 115 115 116 115 115 115 115
87 87 87 88 88 89 89 89 90 90 91 92 93 95 96 98 100 101 103 105 106 107 108 109 110 111 111 112 112 112 112 111 111 111 112 113 113 114 114 114 114 114 114 113 113 112 112 112 112 113 113 113 113 111 111 111 110 110 111 111 111 111 111
80 80 80 81 82 82 83 84 85 86 87 88 90 91 93 95 96 99 101 103 104 106 106 107 108 109 109 110 109 109 108 108 108 109 110 111 112 113 113 113 113 113 113 112 112 112 111 111 111 111 111 111 110 108 108 107 106 105 105 105 106 107 107
76 77 77 78 80 81 82 83 85 85 86 87 89 90 92 94 96 98 100 102 103 105 105 106 106 107 107 107 107 106 106 107 108 109 111 112 113 113 113 113 113 113 113 112 112 111 111 110 109 109 108 107 106 104 103 103 102 101 101 100 100 103 104
75 76 78 79 80 82 83 84 85 85 86 87 89 90 92 94 97 98 99 101 102 103 104 105 106 106 107 107 106 107 107 109 110 111 112 113 113 113 113 112 112 112 112 111 110 109 108 107 106 105 104 102 101 100 99 98 98 98 97 96 96 98 101
76 78 79 80 81 82 83 84 85 85 86 88 89 90 92 94 96 98 99 100 101 103 105 106 107 108 109 109 108 109 110 111 111 112 113 113 113 112 111 110 110 109 109 108 107 106 105 102 101 100 99 97 96 96 95 95 95 95 94 93 93 94 96
78 79 80 81 82 83 84 85 85 86 87 88 88 89 90 93 96 99 101 103 105 106 108 109 110 110 111 111 110 110 111 111 111 112 113 112 111 110 108 107 106 105 104 103 102 101 100 98 96 95 95 94 92 92 92 92 93 93 91 91 92 92 93
79 80 81 81 82 83 85 86 86 86 86 87 89 90 91 94 97 100 103 106 108 109 110 111 111 111 112 112 111 111 110 109 110 110 110 109 108 106 104 103 102 101 100 98 97 96 96 94 92 91 91 91 90 89 89 89 90 91 90 90 91 92 92
80 81 81 82 82 84 85 86 86 86 88 89 91 93 94 97 99 102 105 107 109 110 110 111 110 110 110 110 110 109 107 106 106 106 106 105 103 102 100 99 98 97 96 94 92 91 91 90 89 88 88 88 88 87 87 87 87 88 88 88 90 91 91
81 81 81 81 82 84 86 88 89 89 91 92 94 95 97 99 101 103 106 107 108 109 109 108 107 106 106 106 106 105 103 102 101 101 101 100 99 98 96 95 94 93 92 91 89 88 87 87 86 86 86 86 86 86 85 86 86 87 86 86 88 89 90
81 81 82 83 84 86 89 91 92 92 93 95 96 97 99 100 102 104 106 107 107 106 106 105 104 102 101 100 100 100 99 98 97 97 97 96 95 94 93 91 90 90 89 88 87 85 85 85 85 85 85 85 85 85 84 85 85 86 85 85 86 87 88
82 83 84 86 87 89 91 94 94 94 95 97 98 98 99 101 103 104 105 105 104 104 103 102 100 97 95 95 95 95 94 93 93 93 92 91 91 90 89 88 87 87 86 85 84 83 83 83 83 83 83 84 84 83 83 83 84 85 85 85 84 84 85
84 86 87 89 90 91 93 96 97 97 97 98 98 99 100 101 102 103 103 102 101 101 100 98 95 92 90 91 91 91 90 89 89 89 88 87 86 86 86 85 84 83 83 82 82 82 82 82 82 82 82 83 83 83 83 83 84 84 85 84 84 83 83
86 88 90 91 92 94 96 97 99 99 99 99 99 100 100 101 101 101 100 99 98 97 96 94 92 89 88 88 88 88 87 86 85 85 84 83 82 82 82 81 81 80 80 80 81 81 81 81 81 81 81 82 83 84 84 85 85 85 85 84 83 83 82
88 90 92 94 95 97 98 99 100 101 101 100 100 101 101 101 100 99 96 95 94 94 94 92 89 87 86 86 85 84 84 83 82 81 81 79 78 78 78 78 78 77 77 78 79 80 80 80 80 81 81 82 83 84 84 85 85 85 84 83 82 82 81
91 92 95 97 98 99 100 101 101 102 102 101 101 102 101 100 99 96 93 91 92 92 91 89 87 85 84 83 82 81 81 80 79 78 77 76 75 75 75 75 75 75 76 76 77 78 79 79 79 80 81 81 82 83 83 84 85 84 83 82 81 81 80
93 95 97 100 101 102 102 102 102 103 102 102 102 102 101 100 97 93 90 90 91 90 89 87 86 84 82 81 80 79 78 77 76 75 74 74 73 72 72 72 72 73 74 75 76 76 77 77 78 79 80 80 81 81 82 82 83 83 82 81 81 81 79
96 97 99 102 103 104 103 103 103 102 102 101 101 102 101 98 94 91 89 89 89 88 87 86 85 83 81 79 78 78 77 75 74 73 73 72 71 71 70 70 70 71 72 73 74 74 75 76 76 77 78 78 79 80 80 81 82 83 81 80 81 82 81
99 100 101 103 105 105 105 104 103 102 101 100 101 101 99 95 92 90 89 88 87 85 85 84 83 81 80 78 77 76 75 74 73 73 72 71 70 69 68 68 68 69 70 71 72 73 74 74 74 75 75 76 78 79 80 81 82 82 81 80 81 83 83
101 102 103 103 104 105 105 104 103 102 100 100 100 99 96 92 90 89 88 86 84 82 82 82 81 79 78 77 76 75 74 73 72 72 71 70 68 67 67 67 67 68 69 70 70 71 72 72 72 73 73 75 77 79 80 80 81 81 80 80 81 83 83
102 103 103 102 103 104 104 104 103 102 100 99 98 96 92 89 89 88 86 83 81 80 79 79 78 77 76 75 74 73 72 72 71 70 70 68 66 66 66 66 66 67 68 68 68 69 69 70 71 72 73 75 78 80 80 80 80 80 80 80 80 81 82
103 103 102 101 102 102 102 103 103 102 100 98 96 92 89 88 87 86 83 81 79 78 77 76 75 75 74 73 73 72 71 70 70 69 68 66 65 65 65 65 66 66 66 66 67 67 68 69 71 72 74 76 78 80 81 81 80 79 79 79 79 79 80
103 102 101 100 100 101 101 102 102 101 99 98 94 90 88 87 86 84 81 79 77 76 75 75 74 73 72 72 71 71 70 69 68 67 66 64 64 64 65 65 65 65 65 65 65 66 68 69 71 73 75 77 79 80 81 81 80 79 78 78 77 77 78
103 102 100 99 99 99 99 100 101 101 99 97 92 88 86 85 84 81 79 76 75 75 74 73 72 72 71 70 70 70 69 67 66 64 63 63 63 63 64 64 65 64 64 65 65 66 68 69 71 74 76 77 79 80 82 81 80 78 77 77 77 76 77
102 101 99 97 97 97 97 98 99 100 99 96 91 86 84 83 82 79 77 74 73 73 73 72 71 70 70 69 69 68 67 65 63 62 62 62 62 63 63 64 64 64 64 65 65 67 68 70 71 73 76 77 78 80 81 81 80 78 77 77 76 75 76
101 99 97 95 95 96 96 96 97 98 97 94 89 85 82 80 79 76 74 72 72 72 71 70 70 70 69 68 68 67 66 64 62 61 61 61 62 62 62 63 63 64 64 65 66 67 69 70 72 73 76 77 78 79 80 80 79 78 77 77 75 74 75
99 97 95 94 94 94 95 95 96 96 94 90 86 82 81 78 76 73 71 70 70 70 69 68 68 68 68 67 67 66 64 62 60 59 59 60 61 62 62 62 63 63 64 65 66 67 69 71 72 74 75 76 78 79 79 79 78 78 77 76 75 74 74
98 95 94 93 92 91 92 93 94 94 91 86 81 79 79 77 73 70 69 68 68 68 68 67 67 67 67 67 66 64 62 60 58 58 58 59 60 61 63 63 63 63 64 65 66 68 70 71 73 74 75 76 77 78 78 78 78 78 77 76 74 73 73
95 93 91 91 90 89 89 90 91 90 87 82 78 76 76 74 72 69 67 66 66 66 66 66 66 66 66 65 64 62 60 58 57 57 57 58 59 61 63 64 64 64 64 65 66 68 70 72 73 74 75 75 76 77 77 77 78 78 77 75 73 72 72
95 91 88 87 86 86 86 87 87 86 82 78 75 74 73 71 70 67 66 64 64 64 64 65 65 65 65 64 62 60 57 56 56 57 57 58 59 61 63 64 64 64 64 65 66 68 70 72 73 74 75 75 76 76 77 77 78 77 77 75 73 71 71
96 92 88 84 81 81 82 83 82 81 78 75 73 72 71 69 68 66 65 63 62 62 63 64 64 64 63 62 60 57 56 55 56 57 58 59 60 62 63 64 64 64 64 64 65 68 70 72 73 75 75 75 75 76 77 77 77 77 77 75 73 70 70
Wind_Direction
275 275 275 275 275 275 275 275 275 275 275 276 276 276 277 277 277 277 277 278 278 278 278 278 279 279 279 280 280 280 280 281 281 281 281 281 281 281 281 281 281 281 282 282 282 282 282 282 282 282 282 282 283 283 283 283 283 283 282 282 282 282 282
275 275 275 276 276 276 276 276 276 276 276 277 277 277 277 278 278 278 278 278 279 279 279 279 280 280 280 280 281 281 281 281 281 282 282 282 282 282 282 282 282 282 283 283 283 283 283 283 283 283 283 284 284 284 284 284 284 283 283 283 282 282 282
276 276 276 276 276 276 276 276 276 277 277 277 277 277 277 278 278 278 278 279 279 279 279 280 280 280 281 281 281 281 281 282 282 282 282 282 283 283 283 283 284 284 284 284 284 284 284 284 284 284 285 285 285 285 285 284 284 284 284 283 283 283 283
278 278 278 278 278 278 278 278 278 278 278 278 278 278 278 278 279 279 279 279 280 280 280 281 281 281 281 282 282 282 282 282 283 283 283 284 284 284 285 285 285 285 285 285 285 284 284 284 285 285 285 285 285 285 285 285 285 285 284 284 284 284 284
279 279 279 279 279 279 279 279 279 279 279 279 279 279 280 280 280 280 281 281 281 281 282 282 282 282 282 282 283 283 283 283 284 284 285 285 286 286 286 286 286 285 285 285 285 285 285 285 285 286 286 286 285 285 286 286 286 286 286 285 286 285 285
280 279 279 279 279 279 280 280 280 280 280 280 280 281 281 281 281 282 282 282 282 283 283 283 283 283 283 283 284 284 285 285 286 286 286 286 286 286 286 286 285 285 285 285 286 286 286 286 286 286 286 286 286 286 286 287 287 287 287 287 287 287 286
279 279 279 279 280 280 280 280 280 281 281 281 281 281 282 282 283 283 283 283 283 284 284 284 284 284 285 285 285 286 286 287 287 287 287 286 286 286 286 286 286 286 287 287 287 287 287 287 287 287 287 287 287 288 288 288 288 288 288 288 288 287 287
279 279 280 280 280 280 280 280 280 280 281 281 282 283 283 284 284 284 284 284 285 285 285 286 286 286 286 286 287 287 288 288 288 288 287 287 286 286 287 287 288 288 288 289 289 289 288 288 288 288 288 288 288 289 288 288 288 287 287 287 287 287 286
280 280 280 280 280 280 280 280 281 282 283 284 284 285 286 286 286 286 286 287 287 287 287 288 288 288 288 288 288 289 289 289 288 288 288 288 288 288 289 289 289 289 290 290 289 289 289 289 289 289 288 289 289 289 288 288 287 287 286 286 286 286 285
281 281 281 281 281 282 282 283 284 285 286 286 287 287 288 288 288 288 289 289 289 290 289 289 289 289 289 289 289 289 289 289 289 288 289 289 289 289 289 290 290 290 290 289 289 289 289 289 289 289 288 289 289 288 288 287 287 286 286 286 286 286 286
282 283 283 284 284 285 286 286 287 287 287 288 288 289 290 290 291 291 291 291 291 290 290 290 290 290 290 290 290 290 289 289 289 290 290 289 289 289 289 290 289 289 289 289 289 289 289 289 289 289 289 289 288 288 288 287 287 287 286 287 286 286 286
285 285 286 287 287 287 288 288 288 289 289 289 290 291 291 292 292 292 292 292 292 291 291 291 290 290 290 290 291 290 290 291 291 291 290 290 290 290 290 290 289 289 289 289 289 289 289 289 289 289 289 289 288 288 288 288 288 287 287 288 287 287 287
287 288 288 288 288 289 289 289 289 290 291 291 291 292 292 292 292 293 293 293 292 292 292 291 291 292 292 292 292 292 292 292 291 291 290 290 290 290 290 290 290 290 289 289 290 290 290 290 290 290 290 289 289 289 289 289 289 289 289 289 288 287 286
288 288 288 289 289 290 290 290 291 291 292 292 292 293 293 293 293 294 293 293 293 292 292 292 292 293 293 293 293 293 292 292 292 291 291 291 291 291 291 291 291 290 290 290 290 290 291 291 291 290 290 289 289 289 289 288 288 288 288 288 288 287 287
289 289 289 290 291 291 291 292 292 293 293 293 294 294 295 295 295 294 294 293 293 293 293 293 293 293 293 293 293 293 293 292 292 292 292 291 291 291 291 291 291 291 291 291 291 291 291 291 291 290 289 289 289 289 289 289 289 289 289 290 290 290 290
289 290 290 291 291 292 292 292 293 294 294 295 295 295 296 296 296 295 295 294 294 294 293 293 293 293 293 294 293 293 292 292 292 292 292 292 292 292 292 292 292 292 292 293 293 293 292 291 291 290 290 290 290 291 291 291 291 291 291 290 290 290 291
290 290 291 292 292 293 293 293 294 295 295 296 296 297 297 297 297 296 295 295 295 295 294 294 293 294 294 294 293 292 292 292 292 292 292 292 293 293 293 293 293 293 294 294 293 293 292 292 291 291 292 292 292 292 292 291 291 291 291 291 291 291 292
290 291 292 292 293 293 294 294 295 295 296 297 297 298 298 298 297 297 296 297 296 296 295 294 294 295 295 294 293 293 293 293 293 293 293 293 293 293 294 294 294 294 295 294 294 293 293 293 293 293 293 293 293 293 293 293 293 292 292 293 293 294 294
291 291 292 292 293 293 294 294 295 296 297 298 299 299 299 298 298 297 298 298 298 296 295 295 295 295 295 294 294 294 294 293 293 293 293 293 294 294 294 294 295 295 295 295 294 294 294 294 295 295 295 295 295 295 295 295 295 294 294 295 295 295 295
291 291 292 292 293 294 294 295 297 298 299 299 300 300 299 299 298 299 299 299 298 297 296 296 296 296 296 295 295 294 294 293 293 293 294 294 294 294 294 295 295 295 295 294 294 295 295 296 296 297 296 296 296 296 296 296 295 295 295 295 296 296 295
291 291 292 293 294 294 295 297 298 299 300 300 300 300 300 299 299 300 300 299 298 297 297 298 298 297 296 296 295 294 294 294 294 294 294 294 294 294 295 295 295 295 295 294 295 295 296 297 297 297 296 296 296 296 295 295 295 295 296 296 297 296 296
291 292 292 293 294 295 296 297 299 299 300 301 301 301 300 300 301 301 300 300 299 298 299 299 299 298 297 296 295 295 294 294 294 294 294 294 295 295 295 295 295 295 295 295 295 295 296 296 296 295 295 296 295 295 295 296 296 296 297 298 299 298 298
291 292 293 294 295 296 297 298 299 300 300 301 301 301 301 301 302 302 301 300 300 300 300 300 299 298 297 297 296 295 295 295 295 295 295 295 295 295 295 295 295 294 294 294 294 294 294 294 295 295 295 296 296 296 297 297 298 299 300 301 301 300 300
291 292 293 294 296 297 298 299 300 300 301 301 302 301 301 302 302 301 301 300 300 300 300 299 298 298 297 297 296 296 296 296 296 296 296 296 296 296 295 294 294 293 293 293 293 293 293 294 295 295 296 297 297 298 298 299 300 301 302 303 303 303 302
292 293 294 295 296 298 298 299 300 301 301 301 301 301 301 301 302 301 300 300 300 300 299 298 297 297 296 296 296 296 296 296 296 296 296 296 296 295 295 294 293 292 292 292 292 293 294 295 296 297 298 299 299 299 299 300 301 302 303 304 304 304 304
292 293 295 296 297 298 299 300 300 301 301 301 300 300 300 301 301 300 300 300 300 299 298 297 296 296 295 295 295 295 295 295 295 295 295 296 296 295 294 293 293 292 292 293 293 294 296 297 298 299 300 300 300 300 300 301 302 303 304 305 305 305 304
293 294 295 296 297 298 299 300 300 300 301 301 300 300 301 301 301 300 300 300 299 298 297 296 295 295 295 295 295 295 295 295 295 295 296 296 295 294 293 293 292 293 293 295 296 297 298 300 300 301 301 301 301 301 302 302 303 304 305 305 305 305 305
293 294 295 296 297 298 299 300 300 301 301 301 300 300 301 301 300 300 300 299 299 297 296 295 295 295 294 294 294 294 294 295 295 296 296 296 294 293 292 292 293 294 295 297 298 299 300 301 301 302 302 302 302 303 303 304 304 305 306 306 306 306 306
293 294 296 297 298 299 299 300 301 301 301 300 300 301 302 301 300 300 299 299 298 296 295 295 294 294 294 294 294 294 294 295 295 295 295 294 292 292 292 293 294 295 297 298 299 300 301 301 302 302 302 303 303 304 304 304 305 306 306 306 307 307 307
294 295 296 298 298 299 300 301 302 301 301 300 300 301 301 300 299 299 298 298 296 295 294 294 294 293 293 293 293 293 294 294 294 294 293 292 292 292 293 294 295 297 298 299 300 300 301 301 302 303 303 304 304 305 305 305 306 307 307 308 308 308 308
294 296 297 298 299 300 301 301 301 301 300 300 300 301 300 299 298 298 297 296 295 294 293 294 293 293 293 292 292 293 293 294 293 293 292 293 293 293 294 295 296 298 299 300 300 301 301 302 302 303 303 304 305 305 305 306 307 308 308 309 309 309 309
295 296 298 298 299 300 301 301 301 300 299 299 300 300 299 297 297 296 296 295 294 293 293 293 292 292 292 292 292 292 293 293 293 293 293 294 294 295 295 296 297 298 299 300 301 301 302 302 303 303 304 304 305 305 306 307 308 308 309 309 310 310 309
296 297 298 299 299 300 301 300 300 299 298 298 299 298 297 296 296 295 294 293 293 292 292 292 291 291 291 291 292 292 293 294 294 294 294 294 295 295 296 297 297 298 299 300 301 302 302 303 303 303 304 305 305 306 306 307 308 309 309 310 310 310 309
296 297 298 299 299 299 300 299 298 297 297 297 297 296 295 295 295 294 293 292 292 292 291 291 290 290 291 291 292 293 294 294 294 294 294 294 295 295 295 296 298 299 299 300 301 302 302 303 303 304 304 305 306 306 307 308 309 309 309 310 310 310 310
297 297 298 298 298 298 299 298 297 296 296 296 296 295 294 294 294 293 292 291 291 291 290 290 290 290 290 291 292 293 294 294 294 294 294 294 294 294 295 296 297 298 300 301 302 303 303 304 304 305 305 306 307 307 308 309 309 309 310 310 311 310 310
297 298 297 297 297 297 298 297 296 295 295 295 295 294 294 294 293 292 292 291 290 290 290 289 289 290 290 291 293 294 295 295 295 294 294 293 293 293 294 295 297 298 300 301 303 303 303 304 305 306 306 307 308 308 309 309 309 310 310 311 311 310 310